Location: Prairie State College
(41.5244°N, 87.6382°W)
Time: 20:04:55
(UTC-05:00)

ISS - All Passes

Search period start: 25 July 2014 00:00
Search period end: 04 August 2014 00:00
Orbit: 411 x 420 km, 51.6° (Epoch: 25 July)

Date Brightness Start Highest point End Pass type
(mag) Time Alt. Az. Time Alt. Az. Time Alt. Az.
25 Jul - 01:07:12 10° SW 01:10:25 47° SE 01:13:40 10° ENE visible
25 Jul - 02:44:19 10° W 02:47:16 28° NNW 02:50:14 10° NE visible
25 Jul - 04:22:49 10° NW 04:24:49 15° N 04:26:50 10° NNE visible
25 Jul - 05:59:50 10° NW 06:02:29 21° NNE 06:05:07 10° ENE daylight
25 Jul - 07:36:12 10° NW 07:39:35 90° SSW 07:42:56 10° SE daylight
25 Jul - 09:15:07 10° WSW 09:15:48 11° SW 09:16:28 10° SW daylight
26 Jul - 00:18:54 10° SSW 00:21:45 27° SE 00:24:38 10° ENE night (unlit)
26 Jul - 01:55:11 10° W 01:58:22 39° NNW 02:01:34 10° NE visible
26 Jul - 03:33:37 10° NW 03:35:47 16° N 03:37:57 10° NNE visible
26 Jul - 05:11:08 10° NNW 05:13:29 17° NNE 05:15:50 10° ENE daylight
26 Jul - 06:47:27 10° NW 06:50:46 54° NNE 06:54:05 10° ESE daylight
26 Jul - 08:24:49 10° W 08:27:14 18° SW 08:29:38 10° S daylight
26 Jul - 23:31:05 10° S 23:33:09 16° SE 23:35:14 10° E night (unlit)
27 Jul - 01:06:13 10° WSW 01:09:32 63° NNW 01:12:52 10° NE visible
27 Jul - 02:44:20 10° WNW 02:46:46 18° NNW 02:49:12 10° NNE visible
27 Jul - 04:22:21 10° NNW 04:24:28 15° N 04:26:34 10° NE visible
27 Jul - 05:58:47 10° NW 06:01:55 35° NNE 06:05:03 10° E daylight
27 Jul - 07:35:34 10° WNW 07:38:37 32° SW 07:41:38 10° SSE daylight
28 Jul - 00:17:26 10° SW 00:20:45 76° SE 00:24:07 10° ENE visible
28 Jul - 01:55:04 10° WNW 01:57:47 22° NNW 02:00:31 10° NE visible
28 Jul - 03:33:27 10° NW 03:35:26 15° N 03:37:25 10° NE visible
28 Jul - 05:10:08 10° NW 05:13:01 25° NNE 05:15:54 10° E visible
28 Jul - 06:46:37 10° WNW 06:49:56 57° SW 06:53:14 10° SE daylight
28 Jul - 23:28:53 10° SSW 23:32:04 42° SE 23:35:15 10° ENE night (unlit)
29 Jul - 01:05:52 10° W 01:08:52 29° NNW 01:11:53 10° NE visible
29 Jul - 02:44:22 10° NW 02:46:24 15° N 02:48:25 10° NNE visible
29 Jul - 04:21:29 10° NNW 04:24:04 20° NNE 04:26:39 10° ENE visible
29 Jul - 05:57:49 10° NW 06:01:12 82° NE 06:04:34 10° ESE daylight
29 Jul - 07:36:11 10° WSW 07:37:28 12° SW 07:38:45 10° SSW daylight
29 Jul - 22:40:41 10° S 22:43:26 24° SE 22:46:12 10° ENE night (unlit)
30 Jul - 00:16:47 10° WSW 00:20:00 43° NNW 00:23:14 10° NE visible
30 Jul - 01:55:11 10° NW 01:57:23 16° N 01:59:35 10° NNE visible
30 Jul - 03:32:48 10° NNW 03:35:05 17° N 03:37:23 10° NE visible
30 Jul - 05:09:07 10° NW 05:12:25 49° NNE 05:15:42 10° ESE visible
30 Jul - 06:46:21 10° W 06:48:55 20° SW 06:51:29 10° S daylight
30 Jul - 21:53:03 10° SSE 21:54:52 14° SE 21:56:41 10° E night (unlit)
30 Jul - 23:27:52 10° WSW 23:31:12 69° NNW 23:34:33 10° NE night (unlit)
31 Jul - 01:05:55 10° WNW 01:08:24 19° NNW 01:10:53 10° NNE visible
31 Jul - 02:44:01 10° NNW 02:46:05 15° N 02:48:10 10° NE visible
31 Jul - 04:20:29 10° NW 04:23:34 33° NNE 04:26:40 10° E visible
31 Jul - 05:57:12 10° WNW 06:00:19 35° SW 06:03:24 10° SSE daylight
31 Jul - 22:39:09 10° SW 22:42:28 69° SE 22:45:48 10° ENE night (unlit)
01 Aug - 00:16:41 10° WNW 00:19:27 23° NNW 00:22:14 10° NE visible
01 Aug - 01:55:06 10° NW 01:57:05 15° N 01:59:03 10° NE visible
01 Aug - 03:31:51 10° NW 03:34:41 24° NNE 03:37:31 10° ENE visible
01 Aug - 05:08:18 10° WNW 05:11:39 64° SW 05:14:58 10° SE visible
01 Aug - 21:50:42 10° SSW 21:53:48 38° SE 21:56:56 10° ENE visible
01 Aug - 23:27:32 10° W 23:30:34 31° NNW 23:33:37 10° NE night (unlit)
02 Aug - 01:06:02 10° NW 01:08:04 15° N 01:10:07 10° NNE visible
02 Aug - 02:43:14 10° NNW 02:45:45 19° NNE 02:48:17 10° ENE visible
02 Aug - 04:19:33 10° NW 04:22:56 74° NE 04:26:17 10° ESE visible
02 Aug - 05:57:35 10° W 05:59:14 13° SW 06:00:54 10° SSW daylight
02 Aug - 21:02:35 10° S 21:05:12 22° SE 21:07:51 10° E visible
02 Aug - 22:38:30 10° WSW 22:41:44 46° NNW 22:44:59 10° NE visible
03 Aug - 00:16:50 10° NW 00:19:05 17° N 00:21:20 10° NNE visible
03 Aug - 01:54:33 10° NNW 01:56:48 16° N 01:59:02 10° NE visible
03 Aug - 03:30:54 10° NW 03:34:09 45° NNE 03:37:24 10° ESE visible
03 Aug - 05:08:00 10° W 05:10:42 23° SW 05:13:24 10° S visible
03 Aug - 20:15:11 10° SSE 20:16:41 13° SE 20:18:11 10° ESE daylight
03 Aug - 21:49:39 10° WSW 21:52:58 76° NW 21:56:20 10° NE visible
03 Aug - 23:27:37 10° WNW 23:30:08 19° NNW 23:32:40 10° NNE visible
